Showing default

USA 11, 16116

Orbit data source: Space-Track

USA 11, 16116 is an American payload satellite in GEO that was launched on Thu, 03 Oct 1985 UTC via an SPACE SHUTTLE launch vehicle from the Air Force Eastern Test Range (AFETR). Payload-class satellites include a variety of spacecraft equipped with specific instruments for various scientific and technological missions. These include communications satellites like Starlink; space stations such as the ISS; scientific satellites like the Hubble; Earth observation satellites from companies like Planet Labs, Umbra, and HawkEye 360; GPS; miniature CubeSats for education and research; and military/defense satellites.

Not visible in the next 10 days
Identifier
16116, 1985-092B
Orbit
GEO
Country
Flag of USUS
Related business
Manufacturer
GE/MSVD
Mission
Defense Communications
Bus & Motor
DSCS III, AOCS
Mass
~1,170 kg wet, 893 kg dry
Launch date (UTC)
1985-10-03 (40 years ago)
Launch vehicle
SPACE SHUTTLE
Launch site
Air Force Eastern Test Range (AFETR)
Object type
Payload
Rocket body
Debris
Shape & HBR
Hex Poly + 2 Pan, 1.0 m
Radar Cross Section
8.439 m²

Expand to show TLE details & history
Last TLE update: 1 day ago

TLE from 1 day ago
0 USA 11
1 16116U 85092B   25259.00967786 -.00000255  00000-0  00000-0 0  9998
2 16116  14.4939 349.4517 0005219 209.6198 143.7974  0.99328752 23197
Epoch: 2025-09-16T00:13Z
TLE epoch observation values (Epoch: 2025-09-16T00:13:56.167Z)
Latitude
-1.64362°
Longitude
-15.58854°
Altitude
36,070.801 km
Speed
3.064 km/s
True Right ascension
22h 52m 24s
True Declination
-1° 38' 31"
Sunlit
Object was in daylight at epoch
Visualization orbit readout
Latitude
Unknown
Longitude
Unknown
Altitude
Unknown
Speed
Unknown
Apparent Right ascension
Unknown
Apparent Declination
Unknown
Sunlit
N/A
Visualization observer readout
Local Sidereal Time
19:14:26
Azimuth
Unknown
Elevation
Unknown
Doppler factor
Unknown
Orbital elements
Apogee altitude
36,076.163 km
Perigee altitude
36,031.872 km
Semi-major axis
42,432.154 km
Eccentricity
0.00052
Inclination
14.4939°
RAAN
349.4517°
Arg. of periapsis
209.6198°
True anomaly
143.8327°
Mean anomaly
143.7974°
Eccentric anomaly
143.81505°
Mean motion
0.24831 °/min
Orbital period
1,449.78 mins
BSTAR
0
Loading maneuver chart data...
Computing Atmospheric mass density...
Loading historical data...
Loading historical data...
Loading historical data...
Loading historical data...
Loading historical data...
Loading historical data...
Loading historical data...
Other satellites on launch #92 in the year 1985 (1985-10-03 UTC)

Documentation

Showing up to 5 results
|